Theta_e
286 286 286 284 279 282 281 280 281 280 280 279 278 279 282 282 279 278 283 283 281 283 287 289 289 290 289 290 290 291 290 289 285 283 281 280 279 279 278 278 278 278 278 278 278 277 277 276 275 274 272 271 270 270 269 268 268 267 267 266 266 265 265 265 266 266 267 267 267 267 266 266 265 265 265 264 264 264 263 263 264 264 264 264 264 265 265
283 284 284 284 281 281 282 281 281 282 282 280 280 281 283 282 281 283 284 284 283 286 288 290 290 291 290 290 292 291 290 289 288 285 283 281 279 279 278 278 278 278 278 278 277 277 276 275 274 272 271 270 269 268 268 267 267 266 266 265 265 265 265 265 265 266 265 265 265 265 264 264 264 263 263 263 263 262 262 263 263 264 264 265 265 265 265
283 285 286 284 282 282 281 283 284 284 283 282 282 282 282 283 281 282 282 282 282 288 291 290 292 292 291 291 290 291 291 291 290 290 287 282 281 279 279 279 278 278 278 277 277 276 276 275 274 272 271 269 269 268 267 266 266 266 265 264 264 264 264 265 265 265 265 264 264 263 263 263 262 262 262 262 261 261 262 262 263 264 264 264 265 265 265
281 285 284 284 283 282 282 282 284 284 284 282 283 282 283 281 280 282 281 279 281 286 289 289 289 289 289 289 290 290 291 291 290 289 290 286 282 280 280 279 278 278 277 277 276 276 276 275 273 271 270 268 268 267 267 266 265 265 264 264 264 264 264 264 264 264 264 263 262 262 261 261 261 261 261 260 261 261 261 262 263 264 264 264 264 265 265
279 284 284 280 280 280 278 280 284 285 285 286 286 287 286 285 285 281 279 281 287 288 289 288 287 287 287 288 289 290 290 290 289 290 290 289 285 283 281 279 278 278 278 277 277 277 276 274 273 271 269 268 267 267 266 265 265 264 263 263 263 263 263 263 263 263 262 261 260 260 260 260 260 260 260 260 260 261 261 262 263 263 264 264 264 264 264
279 283 280 280 279 274 276 287 287 288 285 285 283 284 285 286 286 285 288 288 290 290 289 288 288 288 289 291 292 293 292 290 290 291 290 288 288 286 282 280 279 279 278 278 277 277 276 274 273 270 269 268 267 266 265 264 263 263 263 263 262 262 262 262 262 261 260 260 259 259 259 259 259 259 259 259 260 261 262 262 262 262 262 263 263 263 263
279 280 279 276 272 275 286 287 287 288 286 286 285 284 285 286 287 288 287 288 289 290 290 290 290 291 292 293 292 293 290 288 291 292 290 288 287 285 282 279 279 279 278 278 277 276 274 272 270 268 267 266 265 264 264 263 263 263 262 262 262 262 261 261 261 260 260 259 258 258 259 259 259 259 259 260 260 261 261 262 261 261 262 262 262 262 262
276 275 277 272 273 284 286 287 288 289 285 283 282 282 285 286 287 288 286 288 289 290 290 291 292 291 292 292 292 292 289 289 291 291 290 290 287 284 282 280 279 279 278 277 276 275 273 270 267 267 265 265 264 263 263 263 262 262 261 260 261 261 260 260 259 259 259 258 258 258 258 258 258 258 259 260 260 260 261 261 261 262 262 262 261 261 262
276 278 277 277 283 282 284 284 286 287 284 284 282 279 283 288 288 288 287 288 289 290 290 291 291 291 289 287 290 292 290 289 289 290 291 291 288 285 283 282 280 280 279 278 276 273 269 267 266 265 264 263 263 262 261 261 261 261 260 259 260 260 259 259 259 258 258 258 257 257 257 257 257 258 259 259 260 260 260 260 260 260 260 261 261 262 262
284 278 276 277 277 274 279 286 289 288 287 287 286 284 282 289 290 291 288 288 289 289 290 290 290 285 285 285 287 292 291 289 289 288 288 287 286 284 282 280 279 278 277 276 272 268 267 266 265 264 263 263 262 261 260 260 260 260 259 259 260 259 258 258 258 258 258 257 256 257 257 257 257 258 259 259 259 260 259 259 259 260 260 260 261 262 262
282 279 275 275 274 277 285 286 288 284 285 286 283 281 280 288 291 291 291 289 289 290 290 290 285 282 282 284 288 292 287 285 285 285 284 283 281 280 280 279 277 276 274 271 268 267 265 264 264 263 262 262 261 260 260 260 260 260 259 259 259 258 258 258 258 257 257 256 256 256 256 257 257 257 258 258 259 259 259 259 259 260 260 260 261 263 264
280 279 277 275 280 279 285 288 288 282 283 287 284 275 278 289 291 291 290 289 290 290 290 290 285 284 282 285 289 286 282 283 281 282 281 278 278 278 278 277 277 273 269 267 266 265 264 263 263 262 262 262 261 260 260 260 260 260 260 259 259 258 258 258 257 256 256 256 255 255 256 256 257 257 258 258 259 259 259 259 259 259 260 261 261 263 265
279 280 278 280 281 286 288 289 283 283 286 286 278 275 284 292 289 290 289 290 290 290 289 287 285 286 289 291 287 276 278 278 278 277 278 278 278 277 276 274 273 268 268 267 265 265 264 263 262 262 262 261 260 260 260 260 260 260 260 259 258 257 257 256 256 256 256 255 254 255 256 256 257 257 258 258 258 258 257 258 258 259 259 261 263 264 265
278 279 277 277 282 286 289 290 283 287 285 277 278 287 293 292 288 287 289 289 289 289 289 287 289 290 290 289 277 279 278 280 278 277 275 274 273 273 273 272 269 268 268 266 264 263 263 262 261 261 262 261 260 260 260 260 260 260 258 258 257 256 255 255 255 254 254 255 255 255 256 256 256 256 257 257 257 257 257 257 257 258 260 262 263 264 265
281 280 277 276 274 285 293 287 283 285 284 285 291 292 292 292 291 290 287 288 289 288 288 288 289 289 288 286 286 284 280 278 276 274 274 273 271 270 269 268 269 268 265 264 263 262 261 261 261 262 262 261 260 260 260 260 259 258 257 257 256 255 254 253 253 253 253 253 254 255 255 255 255 255 256 256 256 256 256 257 257 259 260 262 263 263 265
277 276 275 276 284 289 292 288 284 286 289 293 293 292 291 293 293 291 290 287 288 288 289 288 287 288 288 285 283 281 279 277 276 275 274 273 271 269 268 268 268 266 264 263 262 261 261 261 261 262 261 260 260 260 261 259 258 257 256 255 255 253 253 252 252 253 253 253 254 253 253 254 254 254 255 255 256 256 256 257 258 259 261 262 263 264 264
284 280 284 288 290 290 291 292 292 292 292 293 293 293 293 292 293 292 291 291 288 287 289 289 288 287 287 286 284 282 281 278 275 274 273 271 270 268 267 267 267 265 263 262 261 260 261 260 261 261 261 261 260 260 259 258 257 256 255 253 252 251 251 252 252 252 252 253 253 252 253 253 254 254 254 254 254 255 256 257 258 259 261 261 263 264 264
291 292 291 288 289 291 289 291 294 293 292 292 292 291 291 292 293 293 290 291 290 287 288 288 288 288 288 286 284 282 281 278 275 274 272 270 269 267 266 266 265 264 262 261 260 260 260 260 260 260 261 261 260 260 258 258 257 255 253 251 251 250 251 251 251 252 253 253 253 254 253 254 253 254 254 254 254 255 256 257 259 259 260 262 264 264 264
287 283 292 291 290 291 290 290 290 292 293 293 292 291 291 292 293 291 288 290 289 289 287 287 289 289 288 287 285 282 279 276 274 272 271 269 268 266 265 265 264 262 261 260 260 260 259 259 259 260 259 260 260 258 257 257 256 253 251 251 252 251 251 251 252 253 254 254 255 254 253 253 254 254 254 254 254 255 257 258 259 259 261 263 263 263 263
286 286 291 292 293 293 292 291 289 289 290 291 292 292 292 292 292 292 291 288 287 287 287 287 288 289 288 286 284 280 278 276 273 272 270 268 267 266 266 265 263 262 262 261 260 259 259 259 259 258 258 258 257 257 256 255 253 252 251 252 252 251 251 253 253 253 253 255 254 253 253 252 253 253 254 255 255 257 258 258 258 260 263 263 263 263 263
288 290 290 291 291 290 290 290 290 291 291 291 291 292 291 290 289 289 288 287 289 288 288 288 287 287 287 286 284 281 279 275 273 271 271 269 267 266 265 264 263 262 262 261 260 260 259 258 258 257 257 256 256 256 255 253 252 251 252 253 252 252 252 253 253 254 253 251 252 252 253 253 253 254 253 254 257 259 261 262 263 264 264 264 264 265 265
284 285 288 290 286 285 290 292 292 291 291 291 291 290 289 289 289 290 289 288 287 287 288 288 287 287 287 286 283 281 279 276 274 272 271 268 266 265 264 263 263 263 262 261 260 259 258 258 257 257 256 255 255 256 254 253 252 252 252 251 252 252 253 253 253 253 252 251 251 253 252 252 252 254 257 262 262 261 261 266 268 269 269 265 266 266 265
284 289 292 292 292 291 293 293 294 294 293 291 290 290 290 291 291 291 290 289 289 287 286 287 287 287 288 287 284 281 279 277 275 273 270 267 266 264 263 262 262 262 261 261 260 259 258 257 256 256 255 255 255 254 254 253 252 252 252 252 252 252 252 252 254 253 252 252 252 251 251 252 252 252 253 255 261 264 265 266 266 268 268 269 269 269 267
291 293 293 293 292 290 292 294 294 295 294 292 291 292 292 291 291 291 290 290 289 289 289 288 286 287 287 287 283 281 280 278 274 272 270 268 266 264 263 262 262 261 261 260 259 258 257 257 256 255 255 255 254 254 253 253 253 252 253 254 253 252 252 253 255 254 254 253 252 251 251 252 251 252 251 251 252 261 266 265 265 266 267 268 268 268 269
290 294 294 294 294 293 295 295 295 295 294 294 292 291 292 292 292 292 291 291 290 290 289 289 288 286 286 286 283 282 281 278 275 272 270 267 266 263 263 263 262 261 260 260 260 258 257 256 255 255 254 254 254 254 253 253 253 252 252 254 252 252 252 253 254 254 253 253 252 251 250 250 250 251 250 249 249 250 254 262 264 264 265 266 267 267 268
294 294 295 295 294 294 295 294 293 293 293 293 291 291 291 291 292 291 291 291 292 291 290 289 289 287 285 285 283 282 280 276 273 271 268 266 265 263 262 262 262 262 261 260 259 257 256 256 255 254 254 253 253 253 253 253 252 252 252 253 253 252 252 253 254 253 253 253 252 251 251 251 250 251 250 249 249 250 250 250 252 257 262 263 264 265 266
294 294 293 291 290 292 294 292 292 294 293 292 292 292 293 292 291 291 292 291 290 291 290 289 289 289 285 284 283 280 278 273 271 270 268 266 263 263 263 263 263 262 261 259 258 257 256 255 255 254 254 253 253 253 252 252 251 250 252 252 252 253 254 254 253 253 254 254 252 250 250 250 252 251 249 249 250 250 249 249 249 250 251 253 257 262 262
292 293 292 288 287 290 292 294 294 294 295 295 294 293 292 291 290 288 287 288 288 288 288 288 287 284 282 281 279 277 274 271 270 269 267 265 264 264 263 263 262 261 260 258 257 256 255 255 255 254 254 254 253 252 251 250 250 250 251 253 253 254 254 254 253 254 253 251 252 251 252 251 251 249 250 249 249 249 249 249 249 249 250 251 252 257 263
288 289 291 292 293 293 294 295 294 293 293 294 293 292 290 288 288 288 288 289 289 288 287 285 284 283 283 280 278 276 273 271 270 268 267 266 264 263 263 262 261 260 259 257 256 256 255 255 255 254 253 253 252 250 250 251 251 251 252 253 254 254 254 254 253 253 252 252 250 251 254 251 249 247 248 248 249 248 248 247 248 250 250 249 251 252 256
287 288 289 289 290 291 291 290 291 292 293 293 293 292 291 289 288 287 288 288 288 287 287 285 281 280 281 278 277 276 273 271 271 269 266 264 263 263 262 261 260 258 257 256 255 255 255 255 254 254 253 252 251 250 250 251 251 252 252 253 253 253 253 254 252 252 251 247 250 252 248 248 246 246 247 247 247 247 247 247 250 249 248 249 252 250 251
286 287 287 288 289 289 289 289 290 291 292 292 292 291 291 289 287 288 288 287 286 286 284 283 281 281 279 278 278 276 274 272 269 267 266 264 262 261 260 259 257 256 255 255 255 255 255 255 255 254 253 252 251 250 251 251 250 251 252 252 253 257 258 258 255 250 249 248 248 246 246 247 246 247 248 247 247 246 246 246 246 247 248 248 248 249 250
284 285 285 286 287 287 288 288 289 289 290 290 290 289 290 288 286 287 288 288 288 287 286 284 281 279 279 278 276 273 270 269 268 266 263 262 261 260 259 260 260 259 258 256 255 255 255 255 254 253 252 251 250 250 251 251 251 251 251 252 253 255 258 259 255 254 250 248 247 246 247 246 245 245 245 246 245 245 245 245 246 247 247 247 248 248 249
281 281 281 282 283 284 285 286 287 288 289 289 289 290 290 290 289 289 289 289 289 288 285 283 281 280 278 275 272 270 268 267 266 264 261 260 260 259 260 263 262 261 259 256 255 255 255 255 254 253 252 251 251 251 251 251 252 251 251 251 251 252 255 257 254 250 249 247 245 245 244 245 245 243 244 246 246 246 244 244 246 246 247 247 247 247 249
283 283 283 284 284 283 283 285 286 287 288 289 290 290 290 290 290 289 289 289 288 287 283 282 281 278 275 272 270 268 266 264 261 260 260 259 259 259 262 264 264 261 258 256 256 256 256 255 253 252 252 251 251 251 251 251 252 250 250 250 251 251 250 250 251 248 246 246 245 247 244 245 244 244 245 245 244 244 245 245 246 247 246 246 247 247 251
276 278 282 284 286 286 287 286 286 286 286 286 288 288 289 289 289 289 289 288 287 287 285 283 279 276 273 271 269 266 265 265 263 261 260 259 259 261 261 259 257 256 255 255 255 255 255 253 252 252 251 251 252 251 251 251 250 249 249 250 250 249 248 248 247 246 245 244 243 242 243 243 244 247 247 245 243 244 244 244 245 246 246 246 246 247 248
271 272 275 278 281 284 286 286 286 286 287 287 287 288 288 288 288 288 287 286 288 286 282 278 275 273 272 270 268 266 267 267 265 261 260 260 261 261 260 256 255 254 254 254 255 254 253 252 252 252 252 252 251 251 251 250 250 249 249 250 249 249 248 248 247 246 245 243 243 244 243 246 246 245 245 243 243 242 242 242 243 244 244 245 246 246 247
268 269 270 273 276 280 282 285 286 287 287 287 288 288 288 288 288 288 287 285 278 278 278 276 274 272 271 271 269 268 268 267 264 262 261 261 260 259 258 257 256 254 254 253 253 253 253 252 252 252 252 252 251 250 250 250 249 249 249 249 249 248 247 246 245 244 243 243 243 243 245 244 241 241 244 242 242 242 243 243 244 244 244 244 246 245 246
266 267 268 270 274 277 280 283 285 286 287 287 287 287 288 288 288 287 285 282 279 277 275 273 274 273 271 269 268 268 267 265 263 262 261 260 260 258 257 256 255 255 254 254 253 253 253 252 252 252 252 251 251 251 251 250 249 249 249 248 248 248 247 246 246 244 243 241 244 241 241 241 240 240 240 240 240 241 243 243 244 244 243 244 243 244 245
263 265 266 269 271 274 278 281 284 285 286 286 286 287 287 287 285 282 279 278 277 276 274 273 272 270 268 268 267 267 264 263 262 261 260 259 260 260 258 257 257 258 259 255 252 252 252 252 252 252 252 251 251 251 250 250 249 249 248 248 247 247 247 246 246 245 244 243 241 241 240 242 242 242 241 241 241 243 244 245 244 244 244 243 243 244 244
262 263 264 265 268 271 275 279 281 283 285 286 285 285 286 282 280 279 278 275 273 272 273 271 270 268 268 268 267 265 263 262 261 261 260 259 259 258 256 256 255 254 253 253 253 253 252 252 252 252 252 252 252 251 250 249 249 248 248 248 247 246 246 245 245 244 243 242 243 245 241 242 242 242 243 242 241 242 241 242 242 243 242 243 242 243 244
261 262 263 264 266 269 273 277 280 283 282 281 282 282 281 280 278 276 274 272 271 271 271 270 269 268 268 267 266 263 262 260 260 260 260 260 259 256 256 254 254 253 253 253 253 253 252 252 252 251 252 252 251 251 250 249 249 248 248 247 247 246 246 245 244 244 243 242 243 240 240 241 241 241 242 241 241 241 241 241 241 242 241 242 243 243 244
260 261 262 263 266 270 274 277 279 279 274 273 274 275 275 275 275 273 271 270 270 270 270 270 268 269 268 266 263 261 260 260 260 259 261 260 260 259 256 254 253 253 253 253 252 252 252 252 252 252 252 252 251 250 250 249 249 248 248 248 247 246 246 245 244 243 242 241 240 238 240 241 240 240 241 241 240 241 241 242 242 242 242 242 243 243 243
260 260 262 263 266 270 274 276 275 271 270 271 271 271 271 270 270 269 269 269 269 269 269 268 267 265 264 262 260 259 258 258 258 260 258 256 257 260 258 253 253 254 253 253 252 252 252 252 252 252 252 251 251 250 250 249 249 249 248 248 247 247 247 245 244 244 243 241 240 238 238 239 238 239 241 240 239 241 241 242 242 243 244 243 242 243 243
260 261 263 266 271 274 273 271 271 270 268 268 269 269 269 269 269 269 268 268 268 267 266 265 264 263 261 260 259 258 258 258 258 259 258 256 254 254 255 253 253 253 253 252 252 252 252 252 252 252 251 250 250 250 250 249 249 248 248 248 248 247 247 245 244 243 243 242 242 241 241 242 241 239 239 240 240 240 244 244 244 245 243 242 243 243 243
261 264 270 275 274 272 272 271 268 267 267 267 267 267 268 268 268 268 268 267 265 264 264 263 262 261 260 260 259 259 259 259 260 260 258 255 252 251 253 253 253 253 253 252 252 252 252 252 252 251 250 250 250 250 250 250 249 249 249 248 248 247 246 246 245 244 243 242 244 244 242 241 240 242 241 241 243 242 243 242 242 242 243 243 243 243 243
263 267 269 269 269 268 267 267 267 267 266 265 264 264 265 266 266 266 265 264 263 263 263 262 261 261 260 259 259 259 259 257 256 255 258 259 256 253 253 253 253 253 252 252 252 252 252 251 251 251 250 250 250 250 250 250 250 249 248 248 247 247 246 246 244 244 243 242 242 242 242 242 241 240 240 239 239 240 242 243 243 242 241 242 241 243 243
262 266 268 267 267 267 267 267 266 266 265 263 261 261 262 263 263 263 263 263 262 262 262 261 261 260 260 259 259 257 256 255 254 254 254 253 253 253 253 253 253 252 253 253 252 252 251 251 251 250 250 250 250 250 250 249 249 248 248 247 247 247 246 245 244 243 242 242 242 243 243 241 239 238 240 241 240 241 240 241 240 241 241 242 242 243 243
260 262 264 266 266 266 265 264 262 260 260 259 259 259 260 260 260 260 261 260 259 259 259 259 259 259 259 260 260 260 260 258 254 252 253 253 253 253 253 253 253 253 252 252 251 251 251 250 250 250 250 250 250 250 249 249 248 248 247 247 247 247 246 245 243 242 241 242 242 241 240 239 240 239 239 239 240 240 239 239 240 241 241 241 241 242 242
260 260 261 262 262 262 261 260 260 259 259 259 259 259 259 259 259 258 258 258 258 257 257 257 257 257 257 257 257 258 257 256 256 253 253 253 253 253 253 253 252 252 252 251 250 250 250 250 250 250 250 249 249 249 249 249 248 248 248 248 247 246 246 245 243 242 241 241 241 240 239 239 239 238 238 239 239 239 240 240 240 239 239 240 242 242 242
258 258 258 258 258 258 259 259 258 259 259 260 259 259 259 259 257 256 257 257 256 256 256 255 255 255 254 254 254 254 254 253 253 253 253 253 253 253 252 252 252 252 251 251 250 250 250 250 249 249 249 249 248 248 248 248 249 248 248 247 246 245 244 243 244 243 241 240 240 240 240 240 238 239 240 239 239 239 240 240 239 242 244 244 242 242 241
257 257 256 257 257 257 257 258 258 259 258 258 258 258 258 257 256 257 257 257 257 256 255 255 255 254 254 254 253 253 253 253 253 253 253 252 252 252 252 252 252 251 251 250 250 249 249 249 249 249 248 248 248 248 248 249 249 248 248 247 247 245 245 244 243 243 241 241 240 240 240 239 239 238 238 238 239 240 240 240 240 240 239 239 240 240 240
258 258 257 257 257 256 256 256 257 258 258 258 259 258 257 257 256 256 256 256 256 255 255 254 253 253 253 253 253 253 253 253 253 252 252 252 252 252 252 252 251 251 250 250 250 250 250 249 249 248 249 249 248 248 248 248 248 247 247 247 246 245 244 243 243 242 241 242 241 240 241 240 238 239 240 239 239 240 240 240 240 240 240 239 240 240 240
Wind_Speed
18 20 23 12 5 8 7 9 13 16 16 14 19 26 28 11 18 26 24 15 15 22 32 35 31 21 13 14 18 15 12 10 6 6 8 10 12 11 11 13 13 14 14 16 16 15 14 13 14 13 12 11 10 9 8 8 7 7 6 6 6 5 5 4 3 2 1 1 2 3 4 5 7 7 8 8 9 10 10 10 10 11 12 13 14 15 14
11 17 19 9 7 7 9 10 13 19 20 17 22 28 26 27 25 20 20 19 22 26 35 31 24 17 10 13 15 15 14 13 10 11 11 10 11 13 15 15 16 16 16 14 15 15 15 16 16 15 13 12 11 11 9 8 7 7 6 6 6 6 5 4 3 2 1 1 2 3 4 6 7 7 8 9 9 9 10 10 11 11 12 12 13 16 17
13 17 17 10 7 10 15 17 19 26 24 16 22 24 28 22 12 18 19 19 24 30 33 23 19 20 12 15 21 25 25 18 16 17 14 11 13 14 14 15 15 15 14 14 14 16 17 18 18 14 14 13 11 10 8 9 8 7 6 6 6 6 5 4 3 1 0 1 2 3 4 6 6 8 9 8 8 9 9 10 11 11 11 12 14 14 15
15 15 17 12 8 11 13 17 26 32 26 22 22 25 18 8 19 20 13 16 23 29 28 12 16 19 18 21 24 25 21 18 15 15 17 12 13 13 16 15 13 13 15 16 18 20 19 18 17 14 15 13 11 10 9 9 8 7 7 7 7 6 5 4 3 2 1 1 3 4 5 6 7 7 7 7 8 8 8 9 9 9 11 13 13 14 14
17 18 10 3 3 0 5 18 32 26 21 24 29 23 11 15 15 15 18 24 24 25 17 14 15 9 11 18 21 21 19 16 13 16 20 16 11 15 15 14 15 17 19 20 21 20 17 17 17 14 13 12 12 11 10 9 8 8 7 7 6 6 5 4 3 2 1 1 3 4 5 6 6 6 7 7 7 7 8 8 10 10 13 13 13 15 14
11 14 8 5 5 14 20 15 4 10 24 23 24 21 19 18 13 18 20 23 24 26 21 18 19 15 21 22 22 21 16 12 13 20 16 11 13 13 12 15 17 18 16 15 16 19 20 17 15 12 11 13 12 11 9 8 9 8 8 7 6 5 5 4 3 2 0 1 3 4 5 6 6 6 6 6 7 7 8 9 10 11 12 13 14 13 13
13 4 9 6 14 18 17 2 10 13 12 14 17 15 16 17 18 22 25 27 29 31 24 21 19 22 24 24 27 26 9 8 16 23 15 12 13 12 11 13 14 16 17 16 15 14 14 16 14 14 12 11 11 9 8 9 7 8 7 6 6 5 5 4 3 1 1 2 4 5 5 6 6 6 6 6 7 7 8 9 10 11 11 13 12 12 12
3 4 9 12 19 7 5 13 17 15 4 8 3 14 14 16 17 20 21 24 30 27 25 23 21 20 22 22 23 20 7 15 17 17 16 16 11 12 12 15 16 16 16 19 21 20 15 15 15 15 13 10 10 9 7 8 8 7 6 5 5 5 4 4 3 2 2 3 4 4 5 5 5 6 6 6 8 8 8 9 9 9 10 10 12 13 13
12 10 14 20 6 13 16 19 19 21 14 12 13 18 17 16 19 22 18 23 28 26 24 24 20 17 9 11 20 18 11 15 16 17 17 16 11 13 13 14 16 18 19 19 17 15 16 17 19 14 11 11 10 9 8 6 6 6 6 5 5 6 5 4 4 3 3 3 4 4 4 5 5 5 7 7 7 6 8 10 10 10 10 10 10 12 14
13 13 12 9 8 15 16 25 33 6 6 9 9 7 15 16 30 20 16 25 26 23 22 22 19 2 6 13 17 20 11 13 12 11 12 8 8 8 8 6 7 10 10 11 13 18 20 18 17 14 14 11 11 9 8 8 7 7 6 5 6 5 5 4 4 4 3 3 4 4 4 4 5 6 6 6 6 6 9 10 11 10 10 10 9 10 13
8 12 12 12 12 15 15 24 22 5 8 10 4 3 13 20 30 16 22 21 22 24 21 20 3 2 9 14 15 17 3 5 6 8 9 8 6 7 11 14 14 14 14 17 20 20 21 20 14 12 13 11 10 9 8 9 7 6 6 5 6 5 5 4 4 3 3 4 4 4 4 4 4 5 6 6 6 7 7 8 10 10 10 10 10 10 12
14 14 13 14 10 13 15 20 18 6 5 9 7 5 15 26 22 18 17 17 22 20 18 15 6 8 11 12 16 5 2 4 4 6 7 6 6 6 7 8 13 16 18 19 21 21 22 17 14 14 12 9 9 9 8 7 7 6 6 5 5 5 4 4 3 3 3 3 4 4 4 4 4 4 5 5 6 7 7 7 9 10 10 9 13 13 12
20 22 18 10 8 8 11 19 2 10 7 7 2 16 23 22 6 11 13 19 20 17 14 9 9 14 16 16 7 4 2 3 2 2 2 4 7 11 12 13 13 17 22 26 27 24 18 14 13 12 11 11 10 8 9 8 8 6 5 6 6 4 3 3 3 4 3 3 4 4 3 4 4 4 4 6 7 6 7 7 8 9 11 12 11 12 13
16 16 17 18 14 4 7 12 18 9 8 8 17 24 24 16 5 10 13 16 14 12 14 11 13 14 15 12 3 5 6 6 6 6 8 9 8 6 9 13 20 18 15 17 19 16 10 12 12 12 11 10 9 10 9 7 7 6 6 6 5 4 3 3 3 3 4 3 3 2 2 3 4 5 4 5 6 7 6 7 10 10 11 9 11 13 11
10 11 13 11 13 8 24 6 8 6 13 20 23 20 14 12 13 10 9 11 12 10 10 14 16 16 11 11 13 11 8 8 10 11 12 13 15 17 16 16 17 19 19 19 16 13 11 10 11 11 11 11 10 9 7 9 8 7 7 6 5 4 3 4 4 4 3 2 1 1 2 2 4 6 5 6 7 6 7 8 9 11 11 11 13 12 10
12 14 14 13 16 19 18 20 16 16 26 23 19 14 18 19 15 11 10 11 13 13 14 15 15 16 15 10 8 8 9 9 9 10 11 10 12 14 13 20 22 20 22 19 14 11 11 9 9 9 10 11 10 9 9 8 8 7 7 6 5 3 4 4 4 3 2 0 0 1 2 3 3 6 6 6 6 5 6 7 8 9 10 11 12 11 13
14 15 15 18 12 12 13 24 23 24 29 26 23 21 19 17 15 11 10 15 13 14 16 15 16 14 14 16 16 16 17 16 15 16 18 20 19 17 19 21 17 22 27 23 13 12 10 11 8 7 6 10 12 12 9 9 9 8 7 6 5 6 5 4 3 3 1 2 1 1 2 2 4 5 6 5 6 5 6 7 8 9 10 11 10 11 12
16 23 17 1 8 16 15 19 22 23 18 20 22 22 19 15 18 14 9 11 10 12 14 13 10 14 15 14 12 13 10 12 12 10 11 12 13 15 15 14 16 16 16 16 13 15 11 10 8 7 6 8 17 11 10 9 9 8 8 8 6 6 4 3 3 2 5 4 3 3 3 2 3 3 5 5 4 6 6 6 7 8 10 9 11 13 13
12 21 12 21 20 18 19 17 18 18 17 18 18 20 19 20 20 12 7 11 9 10 11 15 18 18 15 14 15 12 8 10 13 17 18 20 23 24 22 18 18 18 17 15 13 14 14 10 8 8 7 5 5 9 10 9 9 9 10 9 6 5 4 3 2 5 7 4 3 3 3 3 3 3 3 3 4 4 5 6 7 8 9 10 11 12 13
20 21 15 20 20 21 19 16 15 18 22 22 17 16 17 19 16 14 13 7 6 6 9 16 18 18 14 12 12 11 13 13 13 14 18 21 19 16 17 18 15 13 16 17 16 14 13 11 9 8 7 7 7 8 9 9 9 9 8 6 8 7 5 4 4 6 6 5 6 3 3 3 4 6 4 4 5 4 5 7 7 8 8 10 10 11 13
20 16 17 13 17 13 14 12 14 17 18 19 22 22 18 13 13 13 10 8 14 12 17 16 14 13 12 14 15 15 13 11 11 15 17 22 22 22 21 20 22 20 16 15 15 15 12 11 10 9 9 7 9 10 9 9 10 10 8 8 6 6 5 6 7 5 5 4 4 5 6 3 1 3 4 5 5 7 7 7 7 9 8 10 11 9 10
14 14 15 14 16 17 19 23 22 19 17 18 17 14 13 15 19 19 19 17 13 12 13 14 13 16 16 14 13 16 15 16 18 16 16 19 21 20 14 12 13 12 11 16 17 14 11 11 11 10 10 8 8 8 9 9 9 11 12 9 8 7 6 7 7 6 5 4 4 5 5 7 9 6 5 6 5 6 8 15 19 19 16 11 12 12 11
17 11 15 13 18 20 21 20 17 17 17 17 19 20 22 21 20 20 20 20 18 15 15 15 14 16 18 17 14 14 11 16 17 19 21 21 21 21 19 17 15 15 15 11 14 14 12 12 11 11 10 10 9 9 9 9 9 9 10 9 8 7 6 6 6 6 5 4 3 3 3 4 4 7 12 8 5 7 11 16 17 20 19 19 20 21 15
26 20 19 13 16 20 20 20 21 20 15 13 18 21 21 22 22 21 20 20 20 20 19 17 14 18 19 15 12 17 17 13 13 16 19 23 23 20 17 17 19 17 16 15 17 16 13 12 12 10 10 9 9 9 9 9 8 8 9 11 11 7 8 8 7 6 5 3 2 2 1 1 3 4 4 9 16 18 16 15 18 17 16 19 21 20 20
24 17 18 18 20 24 21 21 21 19 18 16 16 16 19 20 20 20 21 20 18 22 21 20 16 16 18 14 14 17 18 16 18 20 20 20 22 22 16 14 18 18 16 14 11 11 13 12 11 10 11 10 9 9 9 8 8 9 9 9 12 11 8 7 6 7 5 4 2 2 0 1 1 0 2 3 5 11 19 23 21 15 14 17 20 21 21
23 23 22 22 20 22 21 19 20 18 18 14 13 11 16 19 20 18 20 21 21 19 19 17 16 15 15 15 15 15 12 14 14 16 16 23 20 11 18 25 17 12 12 13 13 12 13 13 13 12 12 10 10 11 9 8 8 9 9 8 11 11 10 9 7 5 4 3 2 1 0 1 1 0 1 2 3 4 7 10 15 18 18 19 20 22 20
18 18 18 21 21 23 23 23 21 16 17 13 16 18 18 18 18 17 17 15 15 14 16 19 20 15 10 13 13 11 14 11 14 17 21 27 29 31 14 12 18 22 24 17 12 12 14 12 12 11 11 11 10 10 10 10 12 11 9 10 10 7 11 7 7 7 4 4 3 0 1 1 0 1 2 2 2 3 4 6 7 9 11 13 15 20 17
17 14 12 18 21 20 21 19 20 21 22 23 23 21 17 14 13 11 12 12 13 12 13 13 13 10 12 12 12 11 11 17 22 20 18 26 22 21 25 27 23 23 19 16 13 12 12 11 12 12 10 10 10 10 10 11 11 12 11 8 6 6 6 7 6 6 5 5 2 1 1 0 0 1 3 2 4 3 4 4 5 7 8 9 10 13 20
23 21 20 20 23 23 23 21 21 22 22 19 16 13 11 11 13 14 16 17 17 15 13 11 10 13 15 12 14 16 18 18 17 21 24 18 18 20 22 23 23 24 23 17 13 12 11 11 12 12 10 9 9 10 10 12 13 12 10 7 7 7 6 6 6 6 5 3 2 1 1 1 1 1 2 2 3 2 4 4 6 5 6 8 10 12 13
19 19 21 23 25 26 26 25 25 25 24 23 23 22 18 17 18 17 18 17 14 16 16 13 9 11 13 14 16 18 20 24 23 16 15 22 26 24 23 22 22 18 16 12 12 12 13 12 12 12 12 11 10 10 11 11 11 9 9 10 9 9 8 7 6 7 7 4 2 4 2 0 1 1 1 2 1 2 4 4 5 6 7 8 8 7 11
21 20 22 23 24 24 24 26 24 24 24 22 23 23 22 17 19 20 19 15 12 14 11 12 15 17 15 18 19 17 13 11 14 19 21 23 29 25 26 25 29 18 15 15 15 14 13 12 10 10 9 10 10 10 11 14 12 10 7 8 9 11 14 15 10 8 7 5 4 2 1 0 0 2 4 3 3 2 3 4 4 5 6 7 6 7 9
23 22 23 20 18 21 22 21 21 22 22 21 21 23 21 20 21 22 22 20 19 19 20 18 16 16 17 16 13 13 14 15 16 18 22 27 26 21 19 22 25 14 15 15 15 13 11 12 12 10 11 10 11 11 11 11 13 11 9 6 8 6 10 14 9 8 7 6 4 2 2 1 1 1 1 2 2 4 4 4 5 5 5 6 7 7 9
22 23 22 23 23 24 25 23 22 24 23 24 23 22 22 21 21 22 23 22 20 18 16 16 16 17 12 12 14 14 14 15 16 18 24 24 22 16 13 17 21 26 23 25 15 16 14 18 18 12 12 11 10 10 12 10 8 8 7 8 7 7 7 9 10 8 7 6 4 2 1 1 1 1 1 2 3 4 3 3 4 4 5 6 6 7 8
19 18 20 20 19 20 20 23 20 20 20 20 21 21 21 20 21 21 22 21 20 17 14 16 16 13 13 14 16 16 18 17 19 23 23 18 18 18 16 13 14 16 19 16 11 8 9 17 15 12 13 11 11 9 9 10 8 8 9 8 8 8 8 7 8 7 6 5 4 3 2 2 1 0 2 3 2 3 4 3 5 5 5 6 6 7 12
21 24 24 23 21 21 21 20 19 19 20 22 22 20 19 19 19 20 21 21 21 20 18 16 13 14 16 16 18 20 23 26 27 20 18 16 22 26 19 16 19 19 16 9 9 9 10 11 11 11 11 10 10 9 9 10 10 9 8 8 8 8 8 8 7 6 6 4 3 3 1 1 1 1 2 1 1 3 3 4 3 5 5 7 8 8 9
20 21 21 22 22 24 23 22 20 21 21 21 21 20 19 17 18 19 21 20 19 16 9 10 13 16 18 21 20 22 25 22 23 19 21 25 22 19 18 20 19 18 16 11 6 10 12 10 14 16 11 10 9 8 10 11 10 8 9 8 8 8 8 8 7 6 5 4 3 2 1 1 1 1 1 1 1 2 2 3 3 4 4 5 6 8 8
22 18 18 21 23 24 26 23 21 20 20 20 19 19 20 17 17 16 15 13 6 6 9 10 12 16 21 23 22 18 13 15 19 23 23 23 21 20 22 21 22 20 15 18 12 10 10 12 17 19 12 9 9 9 9 11 10 8 8 8 9 9 8 7 6 7 4 3 3 2 3 3 1 0 1 1 2 2 2 2 5 4 4 4 5 5 7
24 21 20 21 22 24 25 24 24 25 26 27 24 21 20 20 19 18 15 12 11 11 13 16 19 16 12 10 11 15 15 15 18 20 20 23 20 22 20 28 23 19 21 23 14 12 10 16 22 13 8 8 8 8 10 12 9 9 8 8 8 8 8 8 8 7 6 4 4 2 1 1 1 1 1 1 2 2 4 3 4 3 4 4 4 4 6
26 26 22 21 20 22 24 24 23 21 21 23 23 22 20 19 15 8 9 11 12 13 14 13 12 15 17 18 15 13 16 20 22 23 23 24 21 24 23 22 22 22 17 16 16 12 14 16 13 10 8 9 9 9 10 13 10 8 8 8 9 8 7 7 7 7 7 6 3 3 1 1 0 0 1 1 1 2 4 4 3 4 4 4 4 5 6
19 18 21 23 23 24 22 21 22 22 21 19 18 21 20 11 10 10 10 9 8 12 15 15 17 15 15 16 16 14 16 19 20 21 23 20 17 15 15 9 8 12 18 18 13 11 16 19 13 9 8 8 9 8 7 9 8 7 8 8 8 7 7 8 7 7 6 5 4 4 2 1 0 0 1 1 2 2 4 4 3 4 3 4 4 5 6
21 21 22 23 24 23 23 22 22 20 15 12 11 11 7 8 7 8 8 9 8 9 12 15 15 14 16 17 17 17 18 18 20 22 22 20 20 18 21 14 6 10 11 10 11 13 15 11 10 11 9 10 9 9 8 9 7 7 9 8 8 8 8 7 7 7 7 6 6 4 2 1 0 0 0 1 1 1 2 3 3 3 2 4 5 4 5
22 22 24 23 22 23 23 22 18 15 6 5 3 1 3 4 6 8 9 10 10 10 11 10 13 18 17 17 18 18 19 18 17 16 17 19 21 14 11 9 9 10 15 16 14 14 12 10 8 7 10 10 10 12 10 9 8 9 7 7 8 7 7 7 7 6 5 6 5 4 3 1 1 0 0 1 1 2 2 3 4 3 3 4 4 4 5
25 24 24 23 25 24 22 17 7 1 5 6 6 6 7 10 12 12 11 11 12 13 13 14 16 17 19 19 20 20 18 17 19 16 12 12 9 4 13 15 11 15 22 12 12 10 10 8 8 7 13 12 12 15 12 8 9 9 8 7 7 6 6 6 6 6 6 6 6 4 2 2 1 1 1 1 1 1 2 3 3 4 4 3 4 4 5
26 23 22 22 21 17 8 1 3 5 7 7 7 8 9 9 9 12 13 13 13 12 15 15 15 16 17 19 19 18 17 17 15 12 15 14 12 14 10 9 13 17 18 12 9 9 8 8 7 14 19 18 18 14 10 8 8 8 9 8 7 7 7 6 6 5 6 6 6 5 6 4 1 2 2 2 2 1 2 2 2 3 4 3 3 4 4
23 22 22 16 8 6 5 5 5 6 6 7 10 11 10 11 10 9 11 12 13 13 13 15 16 16 15 14 15 17 17 15 14 15 15 16 14 8 9 12 14 13 16 19 13 10 6 8 13 20 16 18 18 16 7 7 7 6 6 7 8 7 6 6 7 6 5 5 5 4 6 3 3 1 2 3 3 2 2 3 4 4 4 3 4 4 5
23 21 15 12 11 9 8 7 6 7 10 13 16 14 12 11 12 12 12 13 14 12 11 12 14 15 16 15 15 16 15 12 12 10 5 7 13 12 14 14 13 13 20 19 12 12 9 16 18 16 17 17 17 11 7 7 6 6 6 10 8 7 6 5 6 6 6 6 6 5 4 2 2 3 4 5 4 3 3 4 5 4 4 4 3 4 4
20 17 12 10 9 9 9 8 7 10 12 13 15 11 9 12 12 10 13 16 15 14 14 13 13 13 14 19 22 18 16 13 10 7 9 15 15 15 17 18 18 21 17 12 11 11 10 15 16 16 16 16 14 9 9 8 9 8 9 9 7 5 6 6 6 6 5 6 6 6 4 3 2 3 4 3 3 3 3 3 4 4 4 5 4 5 5
16 15 14 13 12 12 11 12 13 11 12 9 8 8 9 10 11 12 14 14 16 16 16 14 13 12 12 10 8 8 11 19 20 8 9 14 9 9 9 10 14 17 17 14 15 12 18 17 17 15 17 15 10 8 9 11 11 11 11 9 6 6 6 5 5 5 4 4 4 5 3 3 2 3 3 3 4 3 3 4 5 4 3 3 4 4 4
13 10 10 13 13 14 11 9 9 10 7 8 11 8 10 13 12 12 12 15 18 15 14 14 14 13 10 8 9 7 9 9 5 11 9 9 11 9 11 14 20 18 14 11 13 11 14 14 14 15 15 12 8 8 7 6 7 7 6 6 5 6 5 5 5 5 5 5 5 4 4 4 3 4 4 4 4 3 4 4 5 4 4 4 4 5 4
12 10 11 9 9 10 8 7 8 7 7 7 9 8 8 11 12 9 9 11 10 11 11 10 11 9 7 7 8 9 10 17 18 13 10 12 14 12 13 13 12 14 14 12 13 12 14 18 12 12 11 8 8 7 7 6 5 6 5 5 5 5 5 6 5 5 4 5 4 3 4 4 4 3 5 3 4 4 5 5 4 5 6 6 5 4 4
10 9 7 8 8 8 10 9 8 7 7 8 8 7 9 11 9 9 9 10 11 13 12 12 11 8 7 8 8 10 10 11 13 11 11 9 9 9 11 9 9 9 9 9 8 10 10 10 9 10 10 7 7 8 7 5 5 5 5 4 5 5 5 6 6 5 4 5 4 5 4 4 3 2 4 3 4 4 5 5 5 4 5 5 5 5 4
9 6 6 8 8 9 9 8 9 9 8 8 7 8 8 8 10 11 11 10 9 9 9 13 13 7 7 8 9 9 9 10 8 10 9 8 11 10 11 12 10 10 10 9 9 8 7 8 8 7 8 7 6 6 4 5 5 5 5 4 4 5 5 6 6 4 4 5 5 4 3 3 3 3 3 5 4 5 5 5 5 5 5 5 5 4 4
Wind_Direction
241 246 252 243 163 227 224 197 220 229 216 200 208 229 238 193 214 237 252 250 246 257 257 262 266 278 277 273 274 271 263 264 236 234 222 211 214 211 199 206 201 198 194 192 187 181 180 167 168 160 151 144 135 134 136 143 145 150 153 158 175 181 189 196 209 222 263 322 337 323 321 313 308 305 303 301 300 299 296 296 295 291 291 292 294 294 294
251 258 256 244 199 244 254 242 240 245 239 214 215 237 238 225 233 245 258 264 263 260 260 261 272 280 281 284 284 282 270 259 254 244 236 218 214 207 207 207 205 201 198 188 184 179 173 176 170 161 156 154 154 151 153 152 150 153 153 169 174 182 186 192 197 209 269 316 324 329 316 307 302 300 298 297 294 295 294 293 292 290 291 293 296 308 308
259 259 262 256 223 246 257 262 263 255 251 242 232 239 247 252 263 254 255 264 263 258 260 269 283 283 294 286 280 276 274 272 266 265 253 224 220 213 212 211 205 199 191 186 180 180 182 179 175 167 159 152 150 150 152 154 156 161 159 168 178 176 183 182 187 193 191 345 341 319 305 299 293 291 294 291 291 290 290 289 290 292 297 301 311 308 307
266 262 264 267 234 235 242 257 259 257 254 250 249 243 241 244 250 253 250 246 249 257 263 277 269 274 273 268 266 267 268 267 267 266 266 241 222 214 215 210 198 190 187 185 185 187 184 179 172 166 158 155 154 159 157 159 157 157 164 173 173 174 178 172 176 152 129 353 320 301 296 287 285 287 285 284 285 288 288 293 295 298 302 307 306 308 306
250 257 262 187 163 96 280 240 242 255 266 252 254 259 247 226 240 253 247 248 249 259 270 270 258 241 251 259 260 264 264 264 259 261 260 250 222 223 214 199 195 191 191 190 189 187 178 176 176 172 151 151 163 158 157 156 147 160 170 171 168 170 171 168 161 139 108 315 296 285 281 279 281 278 279 283 286 291 295 299 302 305 309 306 304 307 301
243 249 231 135 155 230 238 244 84 215 247 254 260 261 256 247 212 240 246 258 265 268 264 258 265 269 258 257 260 256 259 271 270 260 253 243 233 229 209 199 195 196 193 192 189 184 180 176 169 149 155 148 141 139 136 142 155 163 165 166 167 170 165 163 144 134 127 256 271 275 274 277 278 283 283 286 293 295 299 306 306 306 306 303 303 300 299
241 186 111 193 213 233 246 343 250 248 251 256 258 264 253 251 242 243 252 259 262 261 265 265 265 260 265 269 268 269 253 217 251 261 260 238 236 224 202 196 197 193 189 183 176 168 169 165 153 141 133 131 126 130 146 152 161 159 163 159 167 166 161 154 140 147 189 250 264 269 278 277 280 281 286 294 302 309 313 312 312 311 308 307 299 297 294
22 109 198 234 235 242 340 279 262 258 237 231 267 265 250 246 247 245 244 252 258 262 266 266 258 261 266 274 276 274 237 219 236 252 252 250 229 217 203 196 195 185 180 178 177 178 160 145 140 139 135 135 130 140 144 152 154 162 159 162 162 160 160 153 152 164 191 240 253 269 278 282 285 296 305 311 315 315 311 307 304 299 299 295 295 298 294
236 217 221 235 316 319 288 282 270 244 217 233 224 256 261 258 247 242 242 249 255 259 261 263 264 263 282 287 278 278 224 226 223 231 243 246 226 214 208 193 192 186 183 178 168 147 142 139 137 139 133 131 134 139 149 155 156 159 161 167 167 165 164 154 161 175 212 230 254 269 271 285 298 311 321 318 317 318 309 310 306 306 296 293 291 292 296
215 236 242 247 228 241 249 244 253 242 191 197 213 207 270 258 259 241 232 241 250 253 255 258 263 9 291 276 275 276 257 211 230 229 238 246 226 212 188 168 158 154 148 137 139 139 134 134 134 132 136 141 142 145 150 155 161 164 168 174 170 164 160 161 174 187 204 227 248 265 274 285 304 311 309 305 308 314 311 309 306 299 295 292 285 285 291
218 232 233 231 228 234 228 251 254 174 191 163 152 157 253 255 254 242 232 233 241 246 245 253 223 156 254 255 261 267 265 210 212 217 226 222 208 176 166 159 151 151 149 143 131 134 131 134 147 139 138 140 143 147 153 160 163 162 174 177 169 162 160 165 183 193 210 226 241 258 276 288 297 304 308 311 305 305 298 297 295 295 292 291 291 293 295
225 233 234 238 215 236 228 243 252 177 136 117 86 286 265 255 252 228 221 220 232 232 235 237 188 189 239 254 259 270 185 213 193 205 194 169 153 147 140 141 149 139 125 124 135 147 152 147 139 143 142 144 143 145 153 154 159 174 178 166 150 139 147 167 191 206 221 220 234 241 275 294 293 291 301 302 308 307 302 298 295 297 291 290 301 304 302
225 223 239 249 268 256 248 245 156 139 129 108 163 237 253 255 195 190 187 213 218 220 219 186 196 216 216 233 248 112 158 98 102 66 113 154 154 152 147 138 130 135 149 148 151 153 143 137 142 146 147 143 146 149 149 154 175 173 150 139 131 136 150 185 204 215 232 221 233 251 252 279 292 302 304 307 306 302 301 299 292 295 297 303 294 297 300
222 226 230 230 239 233 237 246 141 167 95 226 224 239 243 256 218 200 191 209 214 201 198 188 208 222 223 229 144 184 175 193 161 154 131 114 96 87 127 134 136 138 147 128 107 105 129 137 142 148 150 142 142 147 154 166 163 142 133 134 127 132 178 203 209 225 222 237 241 245 281 297 312 310 307 303 297 301 298 298 299 295 302 295 301 298 291
227 230 235 235 241 186 216 154 131 210 201 236 233 249 273 266 248 228 217 212 223 180 202 204 210 224 220 208 214 210 193 166 176 164 164 159 157 148 136 144 152 144 136 145 145 140 146 146 149 155 148 138 144 152 153 158 140 139 133 127 129 151 189 210 219 223 231 214 247 259 305 315 316 310 313 313 310 306 300 303 300 304 305 298 302 300 305
208 213 209 225 212 227 185 158 196 198 213 227 237 238 250 254 252 240 227 220 215 192 196 206 217 220 219 220 215 203 195 188 178 183 171 160 141 118 10 133 152 150 136 123 130 140 145 148 152 158 157 140 149 145 150 139 134 130 124 123 130 159 198 221 214 223 210 183 224 354 327 329 328 308 315 309 306 299 303 304 304 306 307 307 305 305 322
206 228 219 228 224 236 180 196 217 217 214 223 234 236 237 244 253 237 216 229 216 192 202 210 206 218 220 215 206 198 206 191 182 180 181 168 166 160 158 165 153 151 146 147 136 136 145 149 151 149 170 140 140 141 141 139 142 135 130 122 132 177 201 206 206 205 162 85 42 31 349 349 334 317 312 318 311 312 308 306 304 304 304 305 305 325 323
219 239 233 162 213 227 217 212 219 227 227 224 231 238 245 240 244 238 209 230 215 204 210 209 219 219 218 214 217 219 213 188 189 170 152 130 129 131 133 142 155 148 111 105 128 136 142 150 145 153 152 162 148 146 135 141 136 130 125 124 158 187 196 203 199 173 94 73 60 35 9 338 315 289 289 298 295 300 302 301 303 294 301 300 325 332 326
226 248 190 229 226 226 227 224 232 240 236 231 223 236 238 244 244 243 212 226 215 203 199 206 221 226 221 216 217 206 186 185 182 178 172 163 166 162 167 160 133 142 144 140 145 142 142 154 148 149 144 146 120 129 137 137 128 124 122 138 157 165 185 198 163 66 59 46 37 51 14 341 310 289 292 276 287 289 296 305 301 301 294 320 329 329 330
226 245 221 227 230 231 227 219 222 233 238 243 240 234 234 242 250 247 242 228 242 195 196 213 220 230 223 211 212 193 197 194 182 179 176 159 158 168 139 143 146 136 149 147 146 146 145 153 152 146 146 138 132 130 134 131 123 123 134 154 155 167 172 181 92 67 66 32 25 11 16 357 321 321 305 308 304 294 309 306 296 296 314 327 330 330 329
242 253 255 259 261 256 255 245 233 231 234 237 240 242 248 256 262 256 249 213 229 217 223 223 222 230 228 211 203 197 196 183 179 186 183 177 163 152 156 162 161 163 159 149 148 145 141 145 145 145 143 137 141 141 135 130 133 135 143 153 152 149 159 155 93 80 69 54 34 10 339 344 271 239 266 290 298 305 306 291 302 322 319 328 330 326 326
250 235 238 228 248 249 249 247 242 237 235 244 249 251 245 239 243 246 246 239 229 229 232 230 219 220 229 218 197 200 195 190 191 183 178 162 152 156 130 128 156 145 146 141 144 140 139 142 145 145 144 145 146 140 133 134 143 142 143 144 148 138 154 132 110 90 71 55 32 23 359 344 336 327 230 260 304 315 315 329 333 334 338 334 336 336 329
253 234 241 231 243 252 247 252 249 244 236 232 237 239 241 239 236 237 240 246 244 235 236 230 221 222 228 227 202 200 193 201 191 182 171 165 168 145 149 143 156 159 160 145 129 134 141 146 146 148 146 150 144 139 141 151 155 151 149 140 135 141 136 116 108 100 97 80 66 35 1 344 342 335 332 328 313 328 338 339 337 336 339 341 343 343 341
255 250 252 238 243 249 253 252 254 254 247 231 233 238 239 238 237 236 237 235 238 242 239 234 218 224 231 228 183 202 208 194 171 181 183 176 157 151 158 161 157 154 153 158 154 149 148 148 147 146 142 147 145 142 150 160 159 157 161 144 137 148 140 141 107 103 101 101 95 72 33 351 321 337 348 332 326 326 336 347 342 338 339 343 346 346 346
257 252 254 252 253 257 257 258 256 255 252 244 240 237 240 240 238 236 237 236 234 236 238 239 227 219 227 222 197 203 203 191 188 179 174 157 151 159 163 155 161 158 158 156 147 142 143 145 142 144 140 145 143 147 154 158 158 155 164 139 132 141 151 126 115 106 105 98 84 86 80 327 305 334 355 332 325 315 325 330 335 339 347 351 351 348 345
255 261 259 259 257 260 262 265 259 255 257 251 252 244 244 241 241 235 233 232 235 232 235 240 242 229 212 213 208 207 193 186 170 156 162 165 161 148 171 173 157 145 137 133 136 140 141 145 143 142 141 145 149 154 151 156 155 154 151 147 140 152 145 138 119 117 112 111 108 117 245 261 252 287 265 255 266 290 306 316 332 337 341 348 349 346 344
262 263 272 274 267 263 259 257 264 261 263 253 248 249 246 248 243 239 237 238 237 233 229 229 231 231 205 209 208 191 183 154 151 170 180 173 171 185 151 104 144 141 130 130 134 142 142 139 142 144 140 146 150 151 154 151 142 133 143 133 142 132 130 123 117 116 115 109 124 138 196 231 245 318 295 264 275 289 297 308 316 317 317 325 336 341 342
270 268 259 262 264 265 270 271 271 269 267 266 264 260 255 253 252 249 247 243 240 239 238 230 226 202 194 194 171 169 150 160 179 182 171 184 146 95 120 150 128 138 136 134 136 139 141 143 141 131 135 143 147 150 149 152 142 140 141 148 143 143 132 120 109 113 110 120 124 140 185 185 320 301 295 292 305 296 300 299 290 298 309 320 319 318 338
264 265 262 258 261 263 264 265 269 270 272 271 272 273 268 260 252 248 245 239 235 230 233 228 216 200 199 186 173 177 180 181 178 179 186 172 107 141 155 147 139 135 132 132 135 141 141 138 140 137 143 146 146 147 151 151 146 145 150 149 141 134 126 122 118 108 114 112 123 171 94 68 1 312 295 297 292 301 302 299 301 299 305 312 323 331 340
267 264 264 263 263 264 266 266 263 264 264 265 265 263 256 249 253 249 247 246 239 232 227 219 193 198 192 182 185 182 181 188 189 165 143 154 154 140 133 128 119 102 112 129 144 148 151 150 147 148 150 152 151 149 151 147 138 152 151 148 145 135 132 128 115 117 105 112 123 86 73 23 321 307 313 312 311 318 308 314 314 319 321 323 331 327 336
273 271 268 268 267 265 263 264 264 263 263 261 259 260 258 249 247 253 250 245 240 242 234 215 204 205 191 192 194 190 180 160 152 160 160 151 141 153 152 153 150 168 166 165 163 157 150 144 135 142 139 139 145 150 151 140 137 134 134 140 144 139 134 128 123 113 116 115 108 103 92 104 346 13 351 346 347 336 332 320 314 319 318 323 326 328 326
284 282 281 278 276 275 273 271 270 267 264 264 262 258 255 249 246 244 247 244 238 231 229 219 208 199 198 193 172 159 157 153 149 153 146 146 151 162 166 164 158 132 140 141 145 149 142 138 142 140 137 143 144 155 152 143 143 138 146 152 142 127 126 121 109 115 112 115 115 109 130 103 16 23 7 346 336 331 325 323 322 321 322 326 325 321 318
279 281 279 279 278 275 273 270 269 267 264 262 257 256 253 248 245 244 244 245 245 238 229 217 209 205 183 159 157 152 146 147 150 144 146 150 158 158 161 162 161 163 153 151 150 154 149 155 143 134 142 143 148 153 154 148 149 144 144 144 143 132 117 119 121 110 110 107 112 125 120 94 69 48 332 324 324 320 304 304 306 317 322 318 310 313 309
291 284 284 281 279 282 284 285 282 281 279 272 267 262 258 252 248 246 245 244 244 239 220 215 205 181 159 155 150 146 141 136 141 160 167 157 157 157 156 151 154 150 129 101 104 101 73 97 116 137 142 144 149 151 152 148 140 139 143 145 137 127 113 104 110 113 113 108 112 87 92 75 75 18 303 313 317 308 319 319 319 321 321 319 314 316 322
317 313 309 302 294 285 279 276 277 278 281 280 278 274 268 265 259 253 245 240 236 229 221 210 184 164 159 154 154 157 161 169 172 161 156 149 158 162 158 121 110 98 106 108 126 123 118 125 131 126 133 138 143 148 151 140 139 137 145 138 133 123 121 115 115 117 121 125 118 105 77 103 52 335 336 326 309 306 315 313 316 324 333 329 326 329 332
315 313 310 304 300 296 291 285 282 277 273 271 271 271 273 273 270 266 259 248 240 231 203 169 162 160 165 167 168 171 179 176 164 155 152 158 153 152 141 127 123 123 116 105 111 115 126 129 137 140 139 142 146 146 142 138 134 138 140 133 123 117 112 110 112 106 107 111 105 110 132 95 61 23 319 299 305 311 307 311 316 324 321 320 317 329 327
309 304 297 296 293 292 290 288 283 281 277 274 271 269 265 263 264 266 264 267 250 191 177 165 154 169 182 184 181 171 156 148 151 157 158 157 153 147 145 138 127 132 133 134 158 145 135 139 145 142 138 141 142 139 145 145 136 139 131 126 122 120 120 115 117 114 113 103 114 115 107 90 78 348 310 291 312 308 316 319 315 315 322 319 326 324 327
304 303 298 295 293 292 290 287 285 280 277 274 272 266 261 262 262 257 242 211 188 164 152 163 177 179 156 120 134 148 146 142 141 142 141 148 150 143 143 139 141 137 150 159 144 142 140 145 146 140 138 139 139 139 143 146 135 134 130 130 124 124 123 126 124 120 119 124 126 113 114 125 99 20 302 292 301 305 319 315 315 322 324 328 327 324 322
310 311 309 303 298 289 283 283 280 273 267 264 264 266 266 263 257 231 195 192 179 167 160 158 142 142 154 153 149 134 137 143 145 146 149 150 155 155 157 143 153 159 148 127 117 125 140 147 146 139 139 141 139 131 137 139 134 129 128 124 122 123 129 130 131 133 133 132 119 120 104 103 132 174 285 296 298 316 318 316 320 318 331 330 336 331 327
292 290 295 302 299 292 287 280 276 272 268 265 265 264 263 238 204 193 187 171 168 159 152 143 145 147 147 146 141 135 136 142 148 147 144 139 132 114 91 79 46 80 105 123 126 130 141 140 135 135 136 140 137 135 132 139 135 127 127 123 123 125 126 127 126 129 135 131 133 121 113 144 162 198 271 283 316 309 315 316 317 319 329 331 329 319 318
286 286 289 296 293 287 283 280 278 276 274 269 260 260 249 205 180 158 162 147 137 139 142 145 139 135 138 138 136 130 130 135 145 147 141 136 136 140 132 119 121 120 120 128 130 136 137 136 137 140 138 141 138 133 127 137 129 110 115 123 130 131 132 132 136 142 146 147 142 147 157 158 150 31 246 308 282 290 294 302 309 319 330 330 325 321 315
293 291 286 287 290 287 281 277 271 272 302 348 348 51 71 85 117 122 112 114 114 114 116 118 126 133 130 123 121 123 129 136 138 143 147 145 147 142 111 108 137 139 126 112 121 126 131 132 127 130 139 137 136 136 133 133 131 130 125 122 128 130 130 130 134 139 136 130 135 142 162 174 166 209 282 271 283 295 300 305 310 323 331 329 318 316 312
302 295 289 286 288 286 278 273 272 308 40 17 22 44 72 86 95 101 104 108 115 118 112 112 114 113 116 120 122 125 132 134 136 133 85 35 33 130 139 137 137 142 140 129 129 129 135 132 133 131 144 139 137 138 133 127 125 126 132 129 129 126 120 129 134 141 138 141 144 156 159 171 178 182 235 258 267 280 289 300 315 320 324 324 315 313 314
296 289 280 276 277 281 291 350 52 54 50 32 36 54 69 79 93 110 118 118 113 111 116 116 114 115 118 123 124 129 137 142 139 130 113 90 67 53 49 95 122 137 133 128 118 126 128 132 132 141 141 136 135 132 129 124 120 117 119 132 134 130 128 130 139 145 153 159 162 168 174 182 182 199 216 259 270 284 279 288 277 299 311 308 302 301 304
296 294 302 306 327 5 12 20 42 55 62 66 59 56 62 72 75 80 96 99 102 103 109 112 117 119 125 127 132 136 140 142 142 140 135 128 99 120 130 123 126 129 139 142 141 138 106 135 142 142 138 135 138 139 123 124 128 127 128 115 127 130 138 146 156 162 164 163 160 159 167 181 186 187 208 240 241 261 272 286 285 292 300 305 314 316 317
302 306 314 347 6 15 17 33 45 69 79 78 72 55 57 67 76 75 75 86 89 88 94 106 112 118 120 118 115 116 108 87 48 12 30 101 127 140 145 134 139 140 142 141 140 144 139 141 140 137 134 134 138 135 118 111 118 120 117 128 125 137 144 152 157 161 163 161 165 164 165 159 158 210 224 233 242 249 264 269 281 292 281 281 290 291 295
309 310 332 1 18 26 36 42 51 64 72 73 63 50 51 60 66 66 76 78 83 85 86 85 92 106 124 134 137 135 121 97 51 36 64 82 97 117 131 130 130 135 139 139 139 138 138 144 143 136 132 136 136 131 137 136 133 115 124 112 133 144 149 157 162 162 155 156 155 159 162 162 178 209 233 248 257 259 261 273 279 277 281 289 294 300 305
316 322 337 2 22 31 43 57 64 59 53 38 52 53 64 63 59 69 78 79 80 81 84 87 88 97 99 85 75 81 124 132 120 80 85 99 86 90 110 128 139 138 131 126 128 134 141 141 136 130 134 134 129 131 134 121 116 122 111 122 142 151 152 152 148 151 155 156 152 150 156 180 216 220 232 231 246 245 254 256 265 277 278 278 282 291 297
329 345 10 27 42 52 52 46 60 60 54 65 71 63 78 79 69 65 67 78 82 80 83 84 86 85 69 59 61 67 39 15 59 131 143 122 118 111 115 121 126 127 127 126 129 133 140 126 125 128 129 129 128 129 131 134 135 137 142 142 150 154 157 157 156 152 153 162 163 162 169 185 201 206 227 238 247 253 254 259 258 258 267 272 278 281 283
340 15 32 20 29 31 24 43 45 46 66 69 75 75 84 87 75 51 68 75 75 82 76 70 75 61 48 56 56 56 38 69 83 83 99 116 121 117 124 126 128 124 124 126 129 129 139 132 118 124 130 125 131 133 134 125 130 137 136 132 136 140 145 141 145 149 153 149 159 169 180 191 196 208 218 235 247 256 247 252 255 262 261 270 270 281 279
350 1 12 16 22 26 16 23 32 26 35 47 55 65 78 74 74 77 71 84 93 91 91 86 76 54 55 65 72 73 82 89 95 95 95 89 82 96 110 112 113 114 112 109 110 130 137 142 140 120 119 124 124 122 123 130 125 128 134 127 136 146 151 151 157 159 165 168 173 182 184 191 188 209 222 240 249 260 258 260 260 259 259 258 262 265 271
344 359 8 34 36 39 32 18 26 44 44 52 54 66 62 71 84 83 77 66 71 88 96 104 93 46 69 73 74 89 87 89 93 110 102 90 111 110 110 110 104 106 110 112 116 114 119 116 104 116 124 115 105 102 100 118 113 118 129 130 132 141 153 155 157 161 167 171 173 183 191 186 183 204 238 233 240 244 255 251 254 258 260 262 260 262 271